OPTUS D2

Last updated on Fri Nov 28 2025 00:02:47 GMT+0000 (Coordinated Universal Time)

1 32252U 07044A 25331.22614475 -.00000278 00000+0 00000+0 0 9990 2 32252 1.5511 84.5410 0003695 167.6379 45.1277 0.99347389 66531

Satellite not in orbit

OPTUS D2